Culpeper, VA

6:41 PM EDT on April 25, 2017 (GMT -0400)
Culpeper Regional

Weather History for KCJR - January, 2013

Change the Weather History Date:

Wednesday, January 23, 2013

  Actual Average (KOMH) Record (KOMH)
Temperature  
Mean Temperature 17 °F -  
Max Temperature 28 °F 42 °F 67 °F (1950)
Min Temperature 6 °F 23 °F -2 °F (1984)
Degree Days  
Heating Degree Days 48    
Moisture  
Dew Point 4 °F    
Average Humidity 57    
Maximum Humidity 93    
Minimum Humidity 27    
Precipitation  
Precipitation 0.00 in - - ()
Sea Level Pressure  
Sea Level Pressure 30.25 in    
Wind  
Wind Speed 1 mph (NNW)    
Max Wind Speed 9 mph    
Max Gust Speed -    
Visibility 10 miles    
Events Snow    
Averages and records for this station are not official NWS values.
T = Trace of Precipitation, MM = Missing Value Source: NWS Daily Summary

Daily Weather History Graph

Daily Weather History Graph

Search for Another Location

Airport or City:

Trip Planner

Search our weather history database for the weather conditions in past years. The results will help you decide how hot, cold, wet, or windy it might be!

Date:

Astronomy

Jan. 23, 2013 Rise Set
Actual Time 7:23 AM EST 5:23 PM EST
Civil Twilight 6:55 AM EST 5:52 PM EST
Nautical Twilight 6:22 AM EST 6:24 PM EST
Astronomical Twilight 5:51 AM EST 6:55 PM EST
Moon 2:33 PM EST (1/23) 4:32 AM EST (1/23)
Length of Visible Light 10h 57m
Length of Day
10h 00m
Waxing Gibbous, 89% of the Moon is Illuminated
Jan 23
Waxing Gibbous
Jan 26
Full
Feb 3
Last Quarter
Feb 10
New
Feb 17
First Quarter

Hourly Weather History & Observations

Time (EST) Temp. Windchill Dew Point Humidity Pressure Visibility Wind Dir Wind Speed Gust Speed Precip Events Conditions
12:15 AM 12.2 °F - 5.0 °F 73% 30.29 in 10.0 mi Calm Calm - N/A   Clear
12:35 AM 12.2 °F - 6.8 °F 79% 30.29 in 10.0 mi Calm Calm - N/A   Clear
12:55 AM 12.2 °F - 6.8 °F 79% 30.29 in 10.0 mi Calm Calm - N/A   Clear
1:15 AM 14.0 °F - 8.6 °F 79% 30.29 in 10.0 mi Calm Calm - N/A   Clear
1:35 AM 12.2 °F - 6.8 °F 79% 30.29 in 10.0 mi Calm Calm - N/A   Clear
1:55 AM 12.2 °F - 6.8 °F 79% 30.29 in 10.0 mi Calm Calm - N/A   Clear
2:15 AM 12.2 °F - 6.8 °F 79% 30.30 in 10.0 mi Calm Calm - N/A   Clear
2:35 AM 12.2 °F - 8.6 °F 85% 30.30 in 10.0 mi Calm Calm - N/A   Clear
2:55 AM 10.4 °F - 8.6 °F 92% 30.31 in 10.0 mi Calm Calm - N/A   Clear
3:15 AM 10.4 °F - 6.8 °F 85% 30.31 in 10.0 mi Calm Calm - N/A   Clear
3:35 AM 10.4 °F - 6.8 °F 85% 30.30 in 10.0 mi Calm Calm - N/A   Clear
3:55 AM 8.6 °F 2.0 °F 5.0 °F 85% 30.30 in 10.0 mi NW 3.5 mph - N/A   Clear
4:15 AM 10.4 °F - 3.2 °F 73% 30.30 in 10.0 mi Calm Calm - N/A   Clear
4:35 AM 8.6 °F - 3.2 °F 79% 30.30 in 10.0 mi Calm Calm - N/A   Clear
4:55 AM 8.6 °F - 5.0 °F 85% 30.30 in 10.0 mi Calm Calm - N/A   Clear
5:15 AM 8.6 °F - 5.0 °F 85% 30.31 in 10.0 mi Calm Calm - N/A   Clear
5:35 AM 8.6 °F - 5.0 °F 85% 30.32 in 10.0 mi Calm Calm - N/A   Clear
5:55 AM 8.6 °F - 5.0 °F 85% 30.31 in 10.0 mi Calm Calm - N/A   Clear
6:15 AM 8.6 °F - 5.0 °F 85% 30.31 in 10.0 mi Calm Calm - N/A   Clear
6:35 AM 8.6 °F - 5.0 °F 85% 30.32 in 10.0 mi Calm Calm - N/A   Clear
6:55 AM 6.8 °F - 5.0 °F 92% 30.33 in 10.0 mi Calm Calm - N/A   Clear
7:15 AM 6.8 °F - 5.0 °F 92% 30.33 in 10.0 mi Calm Calm - N/A   Clear
7:35 AM 6.8 °F - 5.0 °F 92% 30.33 in 10.0 mi Calm Calm - N/A   Clear
7:55 AM 8.6 °F - 5.0 °F 85% 30.34 in 10.0 mi Calm Calm - N/A   Clear
8:15 AM 10.4 °F - 6.8 °F 85% 30.34 in 10.0 mi Calm Calm - N/A   Clear
8:35 AM 12.2 °F - 8.6 °F 85% 30.34 in 10.0 mi Calm Calm - N/A   Clear
8:55 AM 15.8 °F - 8.6 °F 73% 30.34 in 10.0 mi Calm Calm - N/A   Clear
9:15 AM 17.6 °F - 6.8 °F 63% 30.34 in 10.0 mi Calm Calm - N/A   Clear
9:35 AM 19.4 °F - 8.6 °F 63% 30.35 in 10.0 mi Calm Calm - N/A   Clear
9:55 AM 21.2 °F - 3.2 °F 46% 30.34 in 10.0 mi Calm Calm - N/A   Clear
10:15 AM 21.2 °F - 5.0 °F 50% 30.34 in 10.0 mi Calm Calm - N/A   Clear
10:35 AM 21.2 °F - 3.2 °F 46% 30.34 in 10.0 mi Calm Calm - N/A   Clear
10:55 AM 23.0 °F 13.9 °F 3.2 °F 43% 30.33 in 10.0 mi West 8.1 mph - N/A   Clear
11:15 AM 23.0 °F 18.4 °F 1.4 °F 39% 30.32 in 10.0 mi SW 3.5 mph - N/A   Clear
11:35 AM 24.8 °F 17.9 °F 1.4 °F 36% 30.31 in 10.0 mi SSW 5.8 mph - N/A   Clear
11:55 AM 24.8 °F 20.5 °F -0.4 °F 34% 30.28 in 10.0 mi West 3.5 mph - N/A   Clear
12:15 PM 26.6 °F 20.0 °F -0.4 °F 31% 30.27 in 10.0 mi NW 5.8 mph - N/A   Scattered Clouds
12:35 PM 26.6 °F - -2.2 °F 29% 30.26 in 10.0 mi Calm Calm - N/A   Mostly Cloudy
12:55 PM 26.6 °F 20.0 °F -0.4 °F 31% 30.25 in 10.0 mi WSW 5.8 mph - N/A   Scattered Clouds
1:15 PM 26.6 °F 17.5 °F -0.4 °F 31% 30.24 in 10.0 mi West 9.2 mph - N/A   Scattered Clouds
1:35 PM 26.6 °F 21.2 °F -2.2 °F 29% 30.23 in 10.0 mi West 4.6 mph - N/A   Mostly Cloudy
1:55 PM 26.6 °F 18.2 °F -2.2 °F 29% 30.22 in 10.0 mi West 8.1 mph - N/A   Mostly Cloudy
2:15 PM 26.6 °F 21.2 °F -2.2 °F 29% 30.22 in 10.0 mi West 4.6 mph - N/A   Mostly Cloudy
2:35 PM 26.6 °F - -2.2 °F 29% 30.21 in 10.0 mi Calm Calm - N/A   Overcast
2:55 PM 26.6 °F - -2.2 °F 29% 30.21 in 10.0 mi Calm Calm - N/A   Overcast
3:15 PM 28.4 °F 20.4 °F -0.4 °F 29% 30.21 in 10.0 mi West 8.1 mph - N/A   Overcast
3:35 PM 28.4 °F 24.6 °F -2.2 °F 27% 30.21 in 10.0 mi NW 3.5 mph - N/A   Overcast
3:55 PM 28.4 °F - -2.2 °F 27% 30.21 in 10.0 mi Calm Calm - N/A   Overcast
4:15 PM 28.4 °F - -0.4 °F 29% 30.19 in 10.0 mi Calm Calm - N/A   Overcast
4:35 PM 28.4 °F - -0.4 °F 29% 30.19 in 10.0 mi Calm Calm - N/A   Scattered Clouds
4:55 PM 26.6 °F 22.6 °F 1.4 °F 34% 30.19 in 10.0 mi NE 3.5 mph - N/A   Scattered Clouds
5:15 PM 26.6 °F 22.6 °F 1.4 °F 34% 30.19 in 10.0 mi NNE 3.5 mph - N/A   Overcast
5:35 PM 26.6 °F - -0.4 °F 31% 30.18 in 10.0 mi Calm Calm - N/A   Overcast
5:55 PM 26.6 °F - 1.4 °F 34% 30.18 in 10.0 mi Calm Calm - N/A   Overcast
6:15 PM 26.6 °F 22.6 °F 1.4 °F 34% 30.18 in 10.0 mi NNE 3.5 mph - N/A   Overcast
6:35 PM 26.6 °F 22.6 °F 1.4 °F 34% 30.18 in 10.0 mi NE 3.5 mph - N/A   Overcast
6:55 PM 26.6 °F - 1.4 °F 34% 30.17 in 10.0 mi Calm Calm - N/A   Overcast
7:15 PM 26.6 °F - 3.2 °F 37% 30.16 in 10.0 mi Calm Calm - N/A   Overcast
7:35 PM 26.6 °F - 1.4 °F 34% 30.16 in 10.0 mi Calm Calm - N/A   Overcast
7:55 PM 26.6 °F - 1.4 °F 34% 30.16 in 10.0 mi Calm Calm - N/A   Overcast
8:15 PM 26.6 °F 22.6 °F 3.2 °F 37% 30.16 in 10.0 mi ENE 3.5 mph - N/A   Overcast
8:35 PM 26.6 °F - 1.4 °F 34% 30.16 in 10.0 mi Calm Calm - N/A   Overcast
8:55 PM 26.6 °F - 3.2 °F 37% 30.16 in 10.0 mi Calm Calm - N/A   Overcast
9:15 PM 26.6 °F - 1.4 °F 34% 30.16 in 10.0 mi Calm Calm - N/A   Overcast
9:35 PM 26.6 °F 22.6 °F 1.4 °F 34% 30.16 in 10.0 mi NE 3.5 mph - N/A   Overcast
9:55 PM 24.8 °F 17.9 °F 5.0 °F 43% 30.16 in 10.0 mi NE 5.8 mph - N/A   Overcast
10:15 PM 24.8 °F 17.9 °F 12.2 °F 59% 30.15 in 10.0 mi NNE 5.8 mph - N/A Snow Light Snow
10:35 PM 24.8 °F 17.9 °F 12.2 °F 59% 30.15 in 10.0 mi NNE 5.8 mph - N/A   Overcast
10:55 PM 23.0 °F 17.0 °F 15.8 °F 74% 30.15 in 10.0 mi NNE 4.6 mph - N/A Snow Light Snow
11:15 PM 21.2 °F 13.6 °F 17.6 °F 86% 30.15 in 2.5 mi NNE 5.8 mph - N/A Snow Light Snow
11:35 PM 21.2 °F - 17.6 °F 86% 30.14 in 2.5 mi Calm Calm - N/A Snow Light Snow
11:55 PM 21.2 °F - 19.4 °F 93% 30.13 in 2.5 mi Calm Calm - N/A Snow Light Snow